Starlink 5747

operational
NORAD ID: 55574 Int'l Des: 2023-020 Owner: SPXS Country: US Constellation: starlink
LEOCIRCULAR

Starlink 5747について

説明を読み込み中...

リアルタイム位置

3D地球を読み込み中...

次回通過

高度履歴

Altitude vs Time

uPlot chart will show altitude changes over time

軌道要素

1 55574U 23020F 25354.28902428 .00000691 00000-0 66247-4 0 9992
2 55574 43.0018 76.2265 0001292 268.0564 92.0130 15.02536827156979
Epoch: Dec 20, 2025 • Age: 16 hours

現在のステータス

高度 562.5 km
速度 7.59 km/s
衛星直下点 40.46°N, 106.69°E
打ち上げ日 Feb 12, 2023
運用期間 2.8 years
タイプ internet

技術仕様

分類 Payload
質量 305.00 kg
乾燥質量 290.00 kg
総質量 305.00 kg
長さ 0.20 m
直径 2.80 m
スパン 9.00 m
形状 Box + pan
製造者 SPXS
バスタイプ Starlink
フェーズステータス In Orbit
所有者/国 SPXS/US

大規模コンステレーション

Loading constellations...